Location: Chariton
(41.0140°N, 93.3060°W)
Time: 09:10:34
(UTC-06:00)

Envisat - Visible Passes

Search period start: 22 February 2018 00:00
Search period end: 04 March 2018 00:00
Orbit: 764 x 766 km, 98.2° (Epoch: 22 February)

Date Brightness Start Highest point End Pass type
(mag) Time Alt. Az. Time Alt. Az. Time Alt. Az.
22 Feb 3.6 18:58:04 10° SE 19:02:39 35° ENE 19:07:14 10° N visible
22 Feb 4.9 20:37:25 10° SSW 20:41:41 27° W 20:45:59 10° NW visible
23 Feb 4.4 18:23:06 10° ESE 18:26:17 17° ENE 18:29:29 10° NNE visible
23 Feb 3.4 19:59:47 10° S 20:04:48 61° W 20:09:50 10° NNW visible
24 Feb 3.0 19:23:07 10° SSE 19:28:06 61° ENE 19:33:07 10° N visible
24 Feb 5.7 21:04:34 10° SW 21:07:31 15° W 21:10:28 10° NW visible
25 Feb 3.9 18:47:19 10° SE 18:51:36 28° ENE 18:55:53 10° N visible
25 Feb 4.5 20:25:54 10° SSW 20:30:29 34° W 20:35:06 10° NNW visible
26 Feb 3.1 19:48:35 10° S 19:53:39 77° WSW 19:58:45 10° NNW visible
27 Feb 3.2 19:12:09 10° SE 19:17:00 48° ENE 19:21:53 10° N visible
27 Feb 5.4 20:52:38 10° SW 20:56:16 20° W 20:59:55 10° NW visible
28 Feb 4.1 18:36:39 10° ESE 18:40:34 23° ENE 18:44:29 10° NNE visible
28 Feb 4.1 20:14:29 10° S 20:19:18 43° W 20:24:08 10° NNW visible
01 Mar 2.9 19:37:26 10° SSE 19:42:31 84° ENE 19:47:38 10° NNW visible
01 Mar 6.0 21:21:06 10° W 21:22:09 11° W 21:23:11 10° WNW visible
02 Mar 3.5 19:01:16 10° SE 19:05:56 38° ENE 19:10:37 10° N visible
02 Mar 5.1 20:40:55 10° SSW 20:45:01 25° W 20:49:10 10° NW visible
03 Mar 4.4 18:26:07 10° ESE 18:29:32 19° ENE 18:32:58 10° NNE visible
03 Mar 3.6 20:03:09 10° S 20:08:07 55° W 20:13:07 10° NNW visible
